FW7275 Weather Reports


Display with metric or nautical units.
time (UTC)temp
F
wind
direction
speed
MPH
gust
MPH
rain 1hr
in
rain 24hr
in
rain mn
in
humidity
%
barometer
mb
20260905201024 65 0 0.0 0.0 0.00 0.00 0.16 79
20260905200031 66 0 0.0 0.0 0.00 0.00 0.16 78
20260905195025 66 0 0.0 0.0 0.00 0.00 0.16 78
20260905194030 66 0 0.0 0.0 0.00 0.00 0.16 78
20260905193027 66 0 0.0 0.0 0.00 0.00 0.16 79
20260905192026 66 0 0.0 0.0 0.00 0.00 0.16 80
20260905191024 66 0 0.0 0.0 0.00 0.00 0.16 81
20260905185021 66 0 0.0 0.0 0.00 0.00 0.16 83
20260905184031 65 0 0.0 0.0 0.00 0.00 0.16 83
20260905183025 65 0 0.0 0.0 0.00 0.00 0.16 83
20260905182025 66 0 0.0 0.0 0.00 0.00 0.16 82
20260905181020 66 0 0.0 0.0 0.00 0.00 0.16 81
20260905175022 68 0 0.0 0.0 0.00 0.00 0.16 80
20260905174027 68 0 0.0 0.0 0.00 0.00 0.16 79
20260905173036 69 0 0.0 0.0 0.00 0.00 0.16 78
20260905172023 69 0 0.0 0.0 0.00 0.00 0.16 77
20260905171020 70 0 0.0 0.0 0.00 0.00 0.16 75
20260905170035 72 0 0.0 0.0 0.00 0.00 0.16 73
20260905165029 72 0 0.0 0.0 0.00 0.00 0.16 72
20260905163026 73 0 0.0 0.0 0.00 0.00 0.16 71
20260905161032 73 0 0.0 0.0 0.00 0.00 0.16 71
20260905160037 73 0 0.0 0.0 0.00 0.00 0.16 71
20260905155020 72 0 0.0 0.0 0.00 0.00 0.16 72
20260905154021 72 0 0.0 0.0 0.00 0.00 0.16 71
20260905153030 72 0 0.0 0.0 0.00 0.00 0.16 71
20260905152034 72 0 0.0 0.0 0.00 0.00 0.16 70
20260905151021 72 0 0.0 0.0 0.00 0.00 0.16 69
20260905144033 72 0 0.0 0.0 0.00 0.00 0.16 69
20260905143032 72 0 0.0 0.0 0.00 0.00 0.16 70
20260905142023 72 0 0.0 0.0 0.00 0.00 0.16 71
20260905141021 71 0 0.0 0.0 0.00 0.00 0.16 72
20260905140032 71 0 0.0 0.0 0.00 0.00 0.16 72
20260905135024 71 0 0.0 0.0 0.00 0.00 0.16 74
20260905134021 70 0 0.0 0.0 0.00 0.00 0.16 75
20260905133034 68 0 0.0 0.0 0.00 0.00 0.16 78
20260905132031 68 0 0.0 0.0 0.00 0.00 0.16 78
20260905131018 66 0 0.0 0.0 0.00 0.00 0.16 81
20260905130039 66 0 0.0 0.0 0.00 0.00 0.16 81
20260905125025 66 0 0.0 0.0 0.00 0.00 0.16 83
20260905124030 66 0 0.0 0.0 0.00 0.00 0.16 84
20260905123029 65 0 0.0 0.0 0.00 0.00 0.16 84
20260905122020 65 0 0.0 0.0 0.00 0.00 0.16 83
20260905120027 66 0 0.0 0.0 0.00 0.00 0.16 83
20260905115028 65 0 0.0 0.0 0.00 0.00 0.16 84
20260905114019 65 0 0.0 0.0 0.01 0.00 0.16 84
20260905113035 64 0 0.0 0.0 0.01 0.00 0.16 85
20260905112025 64 0 0.0 0.0 0.01 0.00 0.16 85
20260905111024 63 0 0.0 0.0 0.01 0.00 0.16 86
20260905110029 63 0 0.0 0.0 0.01 0.00 0.16 84
20260905105026 63 0 0.0 0.0 0.01 0.00 0.16 85
20260905104022 62 0 0.0 0.0 0.02 0.00 0.15 86
20260905103038 62 0 0.0 0.0 0.04 0.00 0.15 86
20260905101028 60 0 0.0 0.0 0.08 0.00 0.15 86
20260905100027 60 0 0.0 0.0 0.08 0.00 0.15 86
20260905095022 61 0 0.0 0.0 0.08 0.00 0.15 86
20260905094034 61 0 0.0 0.0 0.06 0.00 0.13 86
20260905093032 62 0 0.0 0.0 0.04 0.00 0.11 83
20260905092029 62 0 0.0 0.0 0.02 0.00 0.09 83
20260905091035 62 0 0.0 0.0 0.00 0.00 0.07 82
20260905090033 63 0 0.0 0.0 0.00 0.00 0.07 81
20260905085034 63 0 0.0 0.0 0.00 0.00 0.07 81
20260905084034 64 0 0.0 0.0 0.00 0.00 0.07 81
20260905083030 64 0 0.0 0.0 0.00 0.00 0.07 81
20260905081022 63 0 0.0 0.0 0.00 0.00 0.07 84
20260905080047 62 0 0.0 0.0 0.00 0.00 0.07 84
20260905075032 62 0 0.0 0.0 0.00 0.00 0.07 84
20260905074025 62 0 0.0 0.0 0.00 0.00 0.07 83
20260905073028 63 0 0.0 0.0 0.01 0.00 0.07 83
20260905072021 63 0 0.0 0.0 0.01 0.00 0.07 84
20260905071031 60 0 0.0 0.0 0.01 0.00 0.07 86
20260905070039 59 0 0.0 0.0 0.02 0.00 0.07 86
20260905065020 58 0 0.0 0.0 0.02 0.00 0.07 86
20260905064020 58 0 0.0 0.0 0.02 0.00 0.07 86
20260905063033 58 0 0.0 0.0 0.01 0.00 0.06 86
20260905062020 59 0 0.0 0.0 0.01 0.00 0.06 86
20260905061027 59 0 0.0 0.0 0.02 0.00 0.06 85
20260905060036 59 0 0.0 0.0 0.02 0.00 0.05 84
20260905055030 59 0 0.0 0.0 0.05 0.00 0.05 84
20260905054029 59 0 0.0 0.0 0.05 0.00 0.05 83
20260905053024 60 0 0.0 0.0 0.05 0.00 0.05 81
20260905052021 60 0 0.0 0.0 0.05 0.00 0.05 79
20260905051022 63 0 0.0 0.0 0.04 0.00 0.04 73
20260905050031 66 0 0.0 0.0 0.03 0.00 0.03 62
20260905045020 66 0 0.0 0.0 0.00 0.00 0.00 62
20260905044021 66 0 0.0 0.0 0.00 0.00 0.00 62
20260905043031 66 0 0.0 0.0 0.00 0.00 0.00 62
20260905042027 67 0 0.0 0.0 0.00 0.00 0.00 63
20260905041033 67 0 0.0 0.0 0.00 0.00 0.00 65
20260905040038 67 0 0.0 0.0 0.00 0.00 0.00 66
20260905035024 68 0 0.0 0.0 0.00 0.00 0.00 66
20260905034032 69 0 0.0 0.0 0.00 0.00 0.00 67
20260905033024 70 0 0.0 0.0 0.00 0.00 0.00 67
20260905032034 71 0 0.0 0.0 0.00 0.00 0.00 68
20260905030037 71 0 0.0 0.0 0.00 0.00 0.00 69
20260905025030 71 0 0.0 0.0 0.00 0.00 0.00 69
20260905024033 71 0 0.0 0.0 0.00 0.00 0.00 69
20260905023032 71 0 0.0 0.0 0.00 0.00 0.00 68
20260905022026 71 0 0.0 0.0 0.00 0.00 0.00 67
20260905021025 72 0 0.0 0.0 0.00 0.00 0.00 64
20260905015021 72 0 0.0 0.0 0.00 0.00 0.00 63
20260905014022 72 0 0.0 0.0 0.00 0.00 0.00 63
20260905013036 72 0 0.0 0.0 0.00 0.00 0.00 62
20260905010037 75 0 0.0 0.0 0.00 0.00 0.00 57
20260905005027 75 0 0.0 0.0 0.00 0.00 0.00 57
20260905003022 75 0 0.0 0.0 0.00 0.00 0.00 56
20260905002021 76 0 0.0 0.0 0.00 0.00 0.00 55
20260904235021 77 0 0.0 0.0 0.00 0.00 0.00 54
20260904234034 77 0 0.0 0.0 0.00 0.00 0.00 53
20260904233029 77 0 0.0 0.0 0.00 0.00 0.00 52
20260904232028 78 0 0.0 0.0 0.00 0.00 0.00 52
20260904231029 78 0 0.0 0.0 0.00 0.00 0.00 52
20260904230037 77 0 0.0 0.0 0.00 0.00 0.00 51
20260904225024 77 0 0.0 0.0 0.00 0.00 0.00 51
20260904224027 77 0 0.0 0.0 0.00 0.00 0.00 50
20260904223035 78 0 0.0 0.0 0.00 0.00 0.00 50
20260904221025 78 0 0.0 0.0 0.00 0.00 0.00 49
20260904220031 78 0 0.0 0.0 0.00 0.00 0.00 49
20260904215025 78 0 0.0 0.0 0.00 0.00 0.00 48
20260904214019 78 0 0.0 0.0 0.00 0.00 0.00 48
20260904213031 78 0 0.0 0.0 0.00 0.00 0.00 48
20260904212022 78 0 0.0 0.0 0.00 0.00 0.00 48
20260904211034 78 0 0.0 0.0 0.00 0.00 0.00 48
20260904210036 78 0 0.0 0.0 0.00 0.00 0.00 47
20260904205023 78 0 0.0 0.0 0.00 0.00 0.00 48
20260904204027 78 0 0.0 0.0 0.00 0.00 0.00 48
20260904203036 78 0 0.0 0.0 0.00 0.00 0.00 48
20260904202030 78 0 0.0 0.0 0.00 0.00 0.00 48